7 * 24
多渠道服务支持
ONEWE-0704 是 OneWeb 卫星通信星座计划中的一颗低轨通信卫星,旨在为全球提供高速互联网服务。该卫星由阿丽亚娜集团制造,采用标准化设计,具备高容量和高效率的通信能力。它运行在约 1200 公里的近地轨道,与其他 OneWeb 卫星协同工作,支持偏远和农村地区的宽带接入。该卫星于 2023 年发射,是 OneWeb 扩展其全球网络覆盖、实现数字包容性目标的重要组成部分。
数据来源 | 国际轨道数据 |
星历时间: | 2025-10-18T12:03:12+0800 9小时前 查看轨道信息 |
半长轴: | 7599.845km |
偏心率: | 0.0002587 |
轨道倾角: | 87.878° |
近地点辐角 | 95.230° |
升交点赤经 | 84.465° |
平近点角 | 264.913° |
近地点: | 1219.743km |
远地点: | 1223.677km |
周期: | 109.892分钟 |
每日圈数: | 13.103754 |